RH
20 31 39 63 99 100 99 76 55 35 29 24 19 21 36 40 40 38 35 31 34 38 44 51 56 68 95 93 74 63 58 43 38 44 48 49 51 55 50 54 49 48 51
22 28 46 94 99 93 90 66 50 39 31 30 25 22 25 35 46 56 60 62 65 71 84 92 97 93 81 76 66 45 49 49 45 42 44 55 84 72 60 62 62 58 58
21 29 35 61 91 100 97 71 63 52 37 27 26 30 31 37 39 46 65 77 82 83 86 85 77 74 70 56 46 54 54 58 67 59 41 38 41 44 59 70 63 58 58
20 19 25 34 72 99 90 83 75 55 45 34 33 30 27 25 29 38 42 51 59 62 64 64 69 68 56 55 65 63 59 56 48 52 60 57 45 38 40 45 51 63 73
20 18 17 21 27 63 78 87 85 84 59 42 36 32 31 31 30 29 32 35 37 40 46 53 58 58 65 67 60 57 55 56 64 65 67 70 73 66 45 40 39 50 51
21 19 15 16 20 28 59 83 96 100 90 68 48 39 38 37 36 38 41 43 46 50 56 59 61 64 63 66 73 77 78 76 72 67 62 59 54 57 61 52 40 34 35
24 22 20 18 17 20 28 57 77 98 87 92 94 75 56 48 48 49 52 52 57 62 63 65 71 80 89 87 85 81 78 74 73 71 68 68 59 44 40 36 34 36 42
26 22 21 22 22 19 20 25 28 35 52 69 94 100 98 86 67 60 60 61 60 64 75 88 98 95 88 79 70 70 76 73 69 62 51 47 42 39 36 34 32 28 26
26 24 24 24 24 23 19 22 25 25 27 30 34 42 71 91 96 100 97 96 93 100 100 100 94 80 68 67 67 59 60 60 52 48 44 41 38 36 32 30 26 21 14
28 27 25 24 22 23 25 27 26 24 25 25 27 29 40 57 65 79 90 98 100 100 98 84 76 77 68 57 55 57 53 49 49 46 40 36 35 31 34 36 34 25 19
34 31 29 25 26 26 26 25 27 28 29 30 32 33 33 32 47 71 88 96 94 90 77 70 70 64 61 59 52 51 51 48 42 37 38 36 33 34 38 30 28 24 18
36 37 35 31 29 27 25 24 24 25 28 30 30 32 32 34 41 70 79 87 92 79 82 64 66 66 58 52 50 49 40 41 40 40 39 34 36 36 32 28 20 11 6
33 33 34 31 27 25 23 22 23 22 23 27 31 36 40 49 58 89 92 97 85 76 69 73 61 50 48 52 41 38 43 44 43 41 40 37 38 38 24 14 9 5 4
30 31 35 34 27 23 22 23 24 22 22 27 40 40 50 64 78 95 100 82 80 79 67 52 45 53 45 33 44 44 45 43 44 47 49 42 29 17 11 7 4 4 4
30 31 34 32 26 23 24 24 23 22 30 42 41 50 77 98 100 98 80 82 74 55 49 52 49 34 41 45 46 48 46 52 53 47 34 18 11 8 5 4 5 4 2
30 31 31 29 24 25 26 24 24 29 37 45 72 91 100 100 98 94 77 65 53 50 49 36 37 46 48 50 49 52 56 54 41 22 14 9 6 4 4 5 4 3 2
29 29 28 24 25 28 26 26 38 44 51 74 86 100 100 96 80 74 60 52 47 38 38 42 44 50 53 53 57 60 53 35 18 12 8 6 4 4 5 4 4 3 2
27 26 24 26 26 26 36 48 52 67 86 100 100 96 81 72 62 49 48 38 42 42 43 48 57 57 55 60 59 54 33 19 12 8 6 4 4 4 4 4 4 3 2
24 23 26 30 38 55 66 72 82 97 88 81 90 77 55 49 51 37 39 41 44 49 50 60 58 63 61 59 51 28 17 11 9 7 4 4 4 3 3 4 4 3 2
27 33 46 62 74 72 81 80 95 98 96 78 55 51 54 48 34 39 44 50 49 53 61 62 61 59 58 44 22 15 11 9 6 5 4 4 3 3 4 4 3 2 3
55 69 78 79 92 83 80 91 99 83 58 55 60 59 47 37 40 50 50 50 56 65 58 56 62 57 39 22 14 10 8 6 5 5 5 4 4 4 4 3 2 4 4
92 92 94 87 78 86 89 91 75 64 66 65 58 42 40 45 48 50 54 61 54 54 61 63 56 38 19 12 10 8 6 5 5 5 4 4 4 3 3 3 4 4 4
72 70 68 83 81 89 87 71 68 70 68 52 45 43 42 47 54 60 58 52 62 66 58 45 28 17 11 10 8 7 6 6 5 5 4 4 3 3 3 3 4 4 4
54 78 89 74 72 69 64 67 72 62 51 44 42 47 56 64 62 53 58 63 61 54 38 22 14 10 9 8 7 6 7 6 6 5 5 4 3 3 3 3 4 4 4
79 76 69 64 68 75 76 60 54 51 46 48 54 63 67 57 56 62 63 61 53 32 16 11 8 8 8 6 6 6 6 5 6 5 4 3 3 2 3 4 4 4 6
54 52 72 79 72 64 57 55 53 50 54 61 67 62 55 56 62 62 59 49 31 14 9 8 7 7 6 5 6 6 5 5 5 4 4 3 2 3 4 5 4 6 8
Wind_Speed
27 26 25 22 26 27 26 24 26 28 29 30 31 30 27 27 29 31 32 36 40 42 44 46 47 49 52 56 60 63 63 62 60 59 61 64 66 70 71 76 78 82 85
26 23 21 24 24 27 27 27 27 28 31 32 33 33 32 30 30 32 34 35 38 41 44 47 50 54 57 59 61 60 60 63 65 64 64 65 70 75 78 81 85 88 92
20 23 23 23 28 28 28 28 29 29 32 32 33 36 38 37 37 38 38 40 42 45 49 52 54 56 59 61 60 62 64 65 69 73 73 73 75 76 83 89 92 96 99
21 22 24 22 28 30 31 32 31 32 34 36 36 35 36 40 42 42 44 45 46 50 51 55 57 59 60 61 65 68 70 72 74 78 82 85 84 83 80 89 95 100 105
27 24 24 26 26 33 36 34 34 36 36 37 36 38 39 40 40 42 43 45 48 50 52 55 58 60 63 67 70 73 76 79 81 83 86 90 94 99 100 95 103 107 112
27 27 25 26 29 30 35 38 38 38 39 40 41 42 41 41 41 43 44 46 48 51 54 58 62 66 69 73 76 79 82 86 89 92 95 99 103 107 110 110 109 112 111
30 30 31 31 30 34 35 37 40 42 43 43 44 47 48 47 47 48 51 53 55 57 61 64 68 72 75 78 82 85 89 92 96 100 104 108 112 115 116 117 113 113 112
34 34 36 37 38 38 39 38 39 42 46 46 48 51 53 55 56 59 61 62 63 65 68 70 74 77 81 85 88 90 94 99 102 106 110 112 114 116 118 123 128 129 129
38 38 38 40 43 45 46 47 47 47 48 50 52 54 56 60 64 66 67 68 70 71 73 77 81 84 86 89 91 97 100 104 107 111 112 113 115 119 126 132 138 141 136
41 42 43 44 46 49 51 52 52 52 53 54 56 58 62 66 67 70 73 75 76 78 81 85 87 87 89 92 97 100 104 108 110 111 112 117 122 127 131 137 139 146 151
45 46 47 49 50 51 54 56 58 59 59 59 60 62 64 67 71 74 78 81 84 85 88 88 88 90 93 96 102 106 107 109 110 114 120 122 128 133 137 142 145 147 150
49 50 52 54 55 56 57 58 61 63 65 65 66 69 74 75 75 79 80 82 82 85 83 89 91 95 98 102 104 105 107 109 114 118 124 130 135 139 145 145 146 144 130
52 54 56 57 59 59 60 62 64 66 68 71 71 73 74 76 77 80 79 78 81 85 89 92 96 101 103 103 104 105 110 115 121 126 131 137 142 143 143 144 139 124 114
58 59 59 62 63 63 64 66 68 70 71 71 72 75 76 76 77 74 76 83 86 88 93 99 102 101 102 103 106 111 116 122 127 132 137 142 144 145 140 132 119 113 107
63 64 64 67 67 66 67 69 72 72 72 72 76 75 74 73 72 77 83 86 89 95 100 100 97 100 103 108 113 118 121 126 132 138 141 143 142 137 126 115 113 106 100
68 68 69 70 68 69 71 73 74 73 73 75 75 72 72 79 82 81 86 93 97 100 94 95 98 103 109 115 119 123 129 133 137 138 139 139 133 119 113 112 104 100 96
71 72 71 70 70 71 73 72 72 73 75 71 71 73 76 78 83 88 93 95 90 90 94 98 103 110 116 119 125 131 135 137 138 137 137 129 119 112 109 100 97 96 92
72 72 70 70 71 71 69 70 73 74 68 67 69 74 80 84 88 92 87 84 90 94 99 104 111 117 122 128 132 136 138 138 137 135 128 118 112 106 97 92 92 89 85
71 69 68 67 67 67 70 72 69 65 67 73 75 79 84 88 85 82 85 90 96 101 107 114 118 125 129 133 138 139 138 136 133 127 119 112 104 96 89 86 84 83 77
64 62 63 65 66 68 67 67 67 68 71 75 80 85 85 81 81 87 91 98 101 108 115 120 124 127 132 137 139 137 134 128 119 115 110 103 97 89 86 82 78 73 69
60 62 63 64 62 64 62 62 67 73 77 81 83 84 81 84 88 94 98 103 109 115 119 123 128 134 138 139 137 134 128 117 111 108 102 96 89 85 80 76 70 63 59
56 58 60 61 58 59 64 70 75 79 81 82 81 80 86 89 94 99 105 111 114 118 124 129 134 138 138 136 131 123 116 110 105 99 95 88 84 79 74 69 62 55 51
56 55 54 57 63 68 71 77 79 79 79 77 82 85 90 95 101 107 112 117 122 125 129 133 136 137 135 128 120 112 108 105 98 93 88 85 79 72 67 60 52 48 44
55 58 62 68 71 75 75 75 74 73 77 81 85 91 97 103 109 113 118 123 126 131 134 136 134 130 122 115 110 103 101 98 91 86 84 79 72 64 58 53 46 43 37
62 65 68 70 69 68 67 68 73 76 81 86 92 98 104 109 115 120 124 127 133 136 136 133 127 115 109 105 100 97 93 88 81 79 75 70 62 55 49 44 41 35 31
60 63 65 61 60 64 68 72 77 82 88 94 100 106 110 115 119 122 127 132 135 135 131 122 111 107 102 98 95 90 86 80 74 73 67 60 52 48 42 39 33 28 26
Wind_Direction
265 282 277 250 256 263 264 270 276 282 287 294 290 281 277 278 276 274 271 269 267 268 270 272 274 276 277 278 279 282 284 285 285 287 290 291 291 290 291 290 289 288 287
267 283 287 251 258 260 263 271 277 280 282 287 291 290 283 275 273 271 271 271 274 275 275 276 276 277 279 281 283 284 286 289 290 290 289 287 288 289 288 288 288 288 288
277 282 295 260 259 267 266 271 276 281 284 285 285 285 285 282 276 273 272 272 274 275 276 278 280 280 281 284 284 286 288 289 289 289 287 285 285 285 288 290 290 289 288
276 283 289 290 263 269 271 275 276 279 282 283 284 285 284 285 282 279 278 276 276 277 278 280 281 282 284 284 286 288 288 288 288 288 289 288 284 281 281 284 284 285 286
269 282 284 286 291 274 272 277 282 283 286 288 285 283 283 284 285 282 279 279 280 281 281 282 283 284 286 286 287 288 289 287 286 286 286 288 289 289 289 286 286 287 287
276 281 288 292 292 294 279 277 283 288 290 288 287 285 285 285 283 284 283 282 282 282 283 284 285 285 286 288 289 289 290 290 291 291 291 291 290 289 289 290 289 289 288
278 284 288 292 295 293 294 286 283 286 289 291 292 293 291 290 287 286 285 284 282 282 283 285 287 288 289 290 290 291 292 293 294 293 293 293 293 294 294 293 291 289 287
276 283 287 291 293 295 293 291 292 290 290 292 292 295 295 292 289 288 286 286 288 289 290 290 291 292 292 292 294 294 294 293 294 295 295 296 295 295 294 291 289 287 287
273 278 285 289 291 293 296 296 296 294 295 295 294 293 292 292 292 291 292 292 291 291 291 290 291 291 292 294 295 295 295 295 296 297 296 296 295 293 292 292 292 294 297
274 278 282 287 290 291 290 291 293 294 296 296 295 294 292 290 292 292 291 290 291 291 291 293 293 292 293 295 296 296 298 299 299 298 297 295 294 294 295 295 296 297 301
274 278 282 286 289 290 289 290 290 291 294 295 296 297 297 295 293 291 290 289 289 291 293 293 293 294 295 297 299 300 300 301 300 298 297 297 296 296 295 297 299 301 301
278 283 284 286 290 290 289 289 290 290 290 291 292 294 297 298 297 293 291 292 292 293 292 295 295 297 299 301 302 301 302 300 300 300 300 297 296 297 298 302 303 303 303
281 284 284 287 288 288 288 289 289 291 289 290 293 296 299 299 295 294 293 291 292 294 296 297 299 301 301 301 302 302 302 303 303 301 299 299 299 300 303 303 305 305 303
280 282 283 286 287 286 287 287 289 291 293 293 295 298 298 296 296 294 292 293 295 297 299 300 302 302 302 303 303 304 305 303 302 301 300 301 303 305 306 307 307 306 303
281 282 282 284 285 286 286 288 290 294 295 296 297 298 298 295 294 293 294 296 298 298 300 302 302 303 304 306 306 305 305 304 303 304 304 305 307 308 308 309 309 305 303
280 280 282 284 283 284 286 289 292 294 296 298 298 296 292 293 292 294 296 298 300 301 302 302 304 306 308 307 307 307 307 305 305 305 307 307 310 310 311 310 308 305 304
279 279 280 280 282 283 286 290 292 295 296 296 294 293 292 292 295 298 299 300 302 302 303 307 308 308 308 309 309 308 307 307 308 309 308 310 311 312 311 310 308 306 307
276 277 278 279 281 285 288 291 293 295 294 292 291 291 292 295 298 300 302 303 302 306 308 309 310 309 309 309 309 308 308 309 310 310 311 311 312 311 311 311 309 308 308
275 277 279 282 285 287 289 292 292 290 290 290 290 293 296 299 301 302 302 304 307 309 310 310 310 310 309 309 308 308 310 310 311 311 311 313 313 313 313 312 310 309 310
276 278 280 283 284 287 289 289 287 288 290 291 294 297 300 301 301 303 305 307 309 309 311 310 309 309 309 309 310 310 310 311 311 311 313 314 314 314 314 312 311 310 309
276 279 281 283 284 287 288 288 289 290 292 295 298 299 299 300 303 305 306 308 310 309 309 309 309 309 310 310 311 311 312 313 312 313 315 314 314 315 313 311 312 310 307
278 281 281 285 286 286 287 287 289 292 295 297 298 298 301 303 305 307 308 309 309 309 310 309 310 310 310 311 312 313 314 313 314 316 315 315 316 315 313 313 313 308 306
279 281 283 284 285 285 287 289 292 294 296 297 298 301 303 305 306 308 309 309 310 309 309 309 309 310 311 313 314 314 314 315 317 317 316 316 316 315 315 314 311 308 310
282 281 283 284 284 286 290 291 293 295 297 299 301 303 305 307 308 309 310 309 309 309 309 309 310 311 312 313 313 314 315 316 318 316 315 315 315 317 315 313 312 312 313
282 282 282 285 288 290 292 293 297 298 299 301 303 305 307 308 308 310 310 309 309 308 309 310 311 312 312 312 313 316 316 317 317 315 315 315 318 316 313 312 312 312 314
282 284 287 289 291 292 295 296 298 299 301 303 306 306 307 309 309 309 308 308 308 309 311 312 312 312 313 314 316 318 316 318 317 315 316 318 317 315 315 314 314 314 321